Location: ???????
(55.7027°N, 37.3832°E)
Time: 21:37:34
(UTC+00:00)

Cosmos 614 Rocket - Pass Details

Date: 14 April 2026
Orbit: 728 x 757 km, 74.1° (Epoch: 16 May)

Event Time Altitude Azimuth Distance (km) Brightness Sun altitude
Rises 17:51:26 0° 332° (NNW) 3,225 8.5 -10.5°
Reaches altitude 10° 17:53:50 10° 335° (NNW) 2,293 7.5 -10.8°
Maximum altitude 17:59:02 70° 59° (ENE) 803 4.0 -11.4°
Enters shadow 18:03:13 16° 142° (SE) 1,908 5.4 -11.8°
